Location: Buena Vista Beach
(41.8098°N, 81.1279°W)
Time: 23:46:21
(UTC+00:00)

Cosmos 1340 - Pass Details

Date: 29 October 2020
Orbit: 501 x 504 km, 81.2° (Epoch: 29 November)

Event Time Altitude Azimuth Distance (km) Brightness Sun altitude
Rises 23:40:56 0° 344° (NNW) 2,615 6.4 -15.2°
Reaches altitude 10° 23:43:06 10° 339° (NNW) 1,725 5.5 -15.6°
Maximum altitude 23:46:46 50° 264° (W) 654 3.6 -16.3°
Drops below altitude 10° 23:50:24 10° 189° (S) 1,712 5.5 -17.0°
Sets 23:52:33 0° 184° (S) 2,591 6.4 -17.4°
